PRIVATE WETTERSTATION BILLIGHEIM-ALLFELD                       ZURCK
Wetterdaten: Samstag, 13.09.2014
Datum Zeit Temp. A. Temp. A. min Temp. A. max Feuchte A. Luftdruck Regen Wind Richtung Richtung Sonnenschein ET Solar Taupunkt Windchill Windben Empfang
13.09.2014 00:00 14,3 C 14,3 C 14,3 C 96 % 1016,8 hPa 0,0 l/m 1,6 km/h (1 Bft) NW 315 0 min 0,000 mm 0 W/m 13,7 C 14,3 C 8,0 km/h (2 Bft) 98 %
13.09.2014 00:10 14,3 C 14,3 C 14,3 C 96 % 1016,9 hPa 0,0 l/m 0,0 km/h (0 Bft) NW 315 0 min 0,000 mm 0 W/m 13,7 C 14,3 C 4,8 km/h (1 Bft) 76 %
13.09.2014 00:20 14,3 C 14,3 C 14,3 C 96 % 1016,9 hPa 0,0 l/m 1,6 km/h (1 Bft) NW 315 0 min 0,000 mm 0 W/m 13,7 C 14,3 C 11,3 km/h (2 Bft) 89 %
13.09.2014 00:30 14,3 C 14,3 C 14,3 C 96 % 1017,2 hPa 0,0 l/m 0,0 km/h (0 Bft) NW 315 0 min 0,000 mm 0 W/m 13,7 C 14,3 C 4,8 km/h (1 Bft) 96 %
13.09.2014 00:40 14,3 C 14,3 C 14,4 C 96 % 1017,3 hPa 0,0 l/m 0,0 km/h (0 Bft) NO 45 0 min 0,000 mm 0 W/m 13,7 C 14,3 C 6,4 km/h (2 Bft) 97 %
13.09.2014 00:50 14,3 C 14,3 C 14,3 C 96 % 1017,4 hPa 0,0 l/m 0,0 km/h (0 Bft) N 360 0 min 0,000 mm 0 W/m 13,7 C 14,3 C 3,2 km/h (1 Bft) 98 %
13.09.2014 01:00 14,3 C 14,3 C 14,3 C 96 % 1017,3 hPa 0,0 l/m 0,0 km/h (0 Bft) N 360 0 min 0,000 mm 0 W/m 13,7 C 14,3 C 4,8 km/h (1 Bft) 98 %
13.09.2014 01:10 14,3 C 14,2 C 14,3 C 96 % 1017,3 hPa 0,0 l/m 0,0 km/h (0 Bft) N 360 0 min 0,000 mm 0 W/m 13,7 C 14,3 C 1,6 km/h (1 Bft) 96 %
13.09.2014 01:20 14,2 C 14,2 C 14,3 C 96 % 1017,6 hPa 0,0 l/m 0,0 km/h (0 Bft) N 360 0 min 0,000 mm 0 W/m 13,6 C 14,2 C 1,6 km/h (1 Bft) 97 %
13.09.2014 01:30 14,3 C 14,2 C 14,3 C 96 % 1017,6 hPa 0,0 l/m 0,0 km/h (0 Bft) N-NW 337 0 min 0,000 mm 0 W/m 13,7 C 14,3 C 3,2 km/h (1 Bft) 98 %
13.09.2014 01:40 14,3 C 14,3 C 14,3 C 96 % 1017,6 hPa 0,0 l/m 0,0 km/h (0 Bft) N-NW 337 0 min 0,000 mm 0 W/m 13,7 C 14,3 C 1,6 km/h (1 Bft) 96 %
13.09.2014 01:50 14,3 C 14,3 C 14,3 C 96 % 1017,7 hPa 0,0 l/m 0,0 km/h (0 Bft) N 0 0 min 0,000 mm 0 W/m 13,7 C 14,3 C 0,0 km/h (0 Bft) 97 %
13.09.2014 02:00 14,3 C 14,3 C 14,3 C 96 % 1017,7 hPa 0,0 l/m 0,0 km/h (0 Bft) N 0 0 min 0,000 mm 0 W/m 13,7 C 14,3 C 0,0 km/h (0 Bft) 98 %
13.09.2014 02:10 14,3 C 14,3 C 14,3 C 96 % 1017,7 hPa 0,0 l/m 0,0 km/h (0 Bft) N 0 0 min 0,000 mm 0 W/m 13,7 C 14,3 C 0,0 km/h (0 Bft) 97 %
13.09.2014 02:20 14,3 C 14,3 C 14,3 C 96 % 1017,7 hPa 0,0 l/m 0,0 km/h (0 Bft) N 0 0 min 0,000 mm 0 W/m 13,7 C 14,3 C 0,0 km/h (0 Bft) 98 %
13.09.2014 02:30 14,4 C 14,3 C 14,4 C 96 % 1017,7 hPa 0,0 l/m 0,0 km/h (0 Bft) N 0 0 min 0,000 mm 0 W/m 13,8 C 14,4 C 0,0 km/h (0 Bft) 97 %
13.09.2014 02:40 14,4 C 14,3 C 14,4 C 96 % 1017,7 hPa 0,0 l/m 0,0 km/h (0 Bft) NW 315 0 min 0,000 mm 0 W/m 13,8 C 14,4 C 1,6 km/h (1 Bft) 97 %
13.09.2014 02:50 14,4 C 14,4 C 14,4 C 96 % 1017,7 hPa 0,0 l/m 0,0 km/h (0 Bft) N 0 0 min 0,000 mm 0 W/m 13,8 C 14,4 C 0,0 km/h (0 Bft) 97 %
13.09.2014 03:00 14,4 C 14,4 C 14,4 C 96 % 1017,7 hPa 0,0 l/m 0,0 km/h (0 Bft) NW 315 0 min 0,000 mm 0 W/m 13,8 C 14,4 C 1,6 km/h (1 Bft) 98 %
13.09.2014 03:10 14,4 C 14,4 C 14,4 C 96 % 1017,8 hPa 0,0 l/m 0,0 km/h (0 Bft) N 0 0 min 0,000 mm 0 W/m 13,8 C 14,4 C 0,0 km/h (0 Bft) 97 %
13.09.2014 03:20 14,4 C 14,4 C 14,4 C 96 % 1017,9 hPa 0,0 l/m 0,0 km/h (0 Bft) NW 315 0 min 0,000 mm 0 W/m 13,8 C 14,4 C 3,2 km/h (1 Bft) 98 %
13.09.2014 03:30 14,4 C 14,3 C 14,4 C 96 % 1017,7 hPa 0,0 l/m 0,0 km/h (0 Bft) N 0 0 min 0,000 mm 0 W/m 13,8 C 14,4 C 0,0 km/h (0 Bft) 97 %
13.09.2014 03:40 14,3 C 14,3 C 14,4 C 96 % 1017,8 hPa 0,0 l/m 0,0 km/h (0 Bft) N 0 0 min 0,000 mm 0 W/m 13,7 C 14,3 C 0,0 km/h (0 Bft) 97 %
13.09.2014 03:50 14,3 C 14,3 C 14,4 C 96 % 1017,8 hPa 0,0 l/m 0,0 km/h (0 Bft) N 0 0 min 0,000 mm 0 W/m 13,7 C 14,3 C 0,0 km/h (0 Bft) 98 %
13.09.2014 04:00 14,3 C 14,3 C 14,4 C 96 % 1017,8 hPa 0,0 l/m 0,0 km/h (0 Bft) NW 315 0 min 0,000 mm 0 W/m 13,7 C 14,3 C 1,6 km/h (1 Bft) 98 %
13.09.2014 04:10 14,2 C 14,2 C 14,3 C 96 % 1018,0 hPa 0,0 l/m 0,0 km/h (0 Bft) N 0 0 min 0,000 mm 0 W/m 13,6 C 14,2 C 0,0 km/h (0 Bft) 97 %
13.09.2014 04:20 14,1 C 14,1 C 14,2 C 96 % 1018,0 hPa 0,0 l/m 0,0 km/h (0 Bft) NW 315 0 min 0,000 mm 0 W/m 13,5 C 14,1 C 1,6 km/h (1 Bft) 97 %
13.09.2014 04:30 14,1 C 14,1 C 14,1 C 96 % 1018,0 hPa 0,0 l/m 0,0 km/h (0 Bft) NW 315 0 min 0,000 mm 0 W/m 13,5 C 14,1 C 3,2 km/h (1 Bft) 98 %
13.09.2014 04:40 14,1 C 14,1 C 14,1 C 96 % 1018,1 hPa 0,0 l/m 0,0 km/h (0 Bft) NW 315 0 min 0,000 mm 0 W/m 13,5 C 14,1 C 4,8 km/h (1 Bft) 98 %
13.09.2014 04:50 14,2 C 14,1 C 14,2 C 96 % 1018,0 hPa 0,0 l/m 0,0 km/h (0 Bft) NW 315 0 min 0,000 mm 0 W/m 13,6 C 14,2 C 1,6 km/h (1 Bft) 97 %
13.09.2014 05:00 14,2 C 14,2 C 14,2 C 96 % 1018,0 hPa 0,0 l/m 0,0 km/h (0 Bft) N 0 0 min 0,000 mm 0 W/m 13,6 C 14,2 C 0,0 km/h (0 Bft) 98 %
13.09.2014 05:10 14,3 C 14,2 C 14,3 C 96 % 1018,0 hPa 0,0 l/m 0,0 km/h (0 Bft) N 0 0 min 0,000 mm 0 W/m 13,7 C 14,3 C 0,0 km/h (0 Bft) 97 %
13.09.2014 05:20 14,3 C 14,3 C 14,3 C 96 % 1018,1 hPa 0,0 l/m 0,0 km/h (0 Bft) N 0 0 min 0,000 mm 0 W/m 13,7 C 14,3 C 0,0 km/h (0 Bft) 97 %
13.09.2014 05:30 14,3 C 14,3 C 14,3 C 96 % 1018,1 hPa 0,0 l/m 0,0 km/h (0 Bft) N 0 0 min 0,000 mm 0 W/m 13,7 C 14,3 C 0,0 km/h (0 Bft) 97 %
13.09.2014 05:40 14,4 C 14,3 C 14,4 C 96 % 1018,3 hPa 0,0 l/m 0,0 km/h (0 Bft) N 0 0 min 0,000 mm 0 W/m 13,8 C 14,4 C 0,0 km/h (0 Bft) 98 %
13.09.2014 05:50 14,4 C 14,4 C 14,4 C 96 % 1018,2 hPa 0,0 l/m 0,0 km/h (0 Bft) N 0 0 min 0,000 mm 0 W/m 13,8 C 14,4 C 0,0 km/h (0 Bft) 97 %
13.09.2014 06:00 14,4 C 14,4 C 14,4 C 96 % 1018,3 hPa 0,0 l/m 0,0 km/h (0 Bft) N 0 0 min 0,000 mm 0 W/m 13,8 C 14,4 C 0,0 km/h (0 Bft) 98 %
13.09.2014 06:10 14,4 C 14,4 C 14,4 C 96 % 1018,3 hPa 0,0 l/m 0,0 km/h (0 Bft) N 0 0 min 0,000 mm 0 W/m 13,8 C 14,4 C 0,0 km/h (0 Bft) 97 %
13.09.2014 06:20 14,4 C 14,4 C 14,4 C 96 % 1018,3 hPa 0,0 l/m 0,0 km/h (0 Bft) N 0 0 min 0,000 mm 0 W/m 13,8 C 14,4 C 0,0 km/h (0 Bft) 97 %
13.09.2014 06:30 14,4 C 14,4 C 14,4 C 96 % 1018,4 hPa 0,0 l/m 0,0 km/h (0 Bft) N 0 0 min 0,000 mm 0 W/m 13,8 C 14,4 C 0,0 km/h (0 Bft) 97 %
13.09.2014 06:40 14,4 C 14,4 C 14,5 C 96 % 1018,4 hPa 0,0 l/m 0,0 km/h (0 Bft) N 0 0 min 0,000 mm 0 W/m 13,8 C 14,4 C 0,0 km/h (0 Bft) 97 %
13.09.2014 06:50 14,4 C 14,4 C 14,5 C 96 % 1018,7 hPa 0,0 l/m 0,0 km/h (0 Bft) N 0 0 min 0,000 mm 0 W/m 13,8 C 14,4 C 0,0 km/h (0 Bft) 97 %
13.09.2014 07:00 14,5 C 14,4 C 14,5 C 96 % 1018,7 hPa 0,0 l/m 0,0 km/h (0 Bft) N 0 0 min 0,000 mm 0 W/m 13,9 C 14,5 C 0,0 km/h (0 Bft) 98 %
13.09.2014 07:10 14,5 C 14,4 C 14,5 C 96 % 1019,0 hPa 0,0 l/m 0,0 km/h (0 Bft) N 0 0 min 0,000 mm 0 W/m 13,9 C 14,5 C 0,0 km/h (0 Bft) 97 %
13.09.2014 07:20 14,4 C 14,4 C 14,5 C 96 % 1019,0 hPa 0,0 l/m 0,0 km/h (0 Bft) N 0 0 min 0,000 mm 0 W/m 13,8 C 14,4 C 0,0 km/h (0 Bft) 97 %
13.09.2014 07:30 14,4 C 14,4 C 14,5 C 96 % 1019,1 hPa 0,0 l/m 0,0 km/h (0 Bft) N 0 0 min 0,000 mm 11 W/m 13,8 C 14,4 C 0,0 km/h (0 Bft) 98 %
13.09.2014 07:40 14,4 C 14,4 C 14,4 C 96 % 1019,1 hPa 0,0 l/m 0,0 km/h (0 Bft) N 0 0 min 0,000 mm 12 W/m 13,8 C 14,4 C 0,0 km/h (0 Bft) 98 %
13.09.2014 07:50 14,4 C 14,4 C 14,4 C 96 % 1019,1 hPa 0,0 l/m 0,0 km/h (0 Bft) N 0 0 min 0,000 mm 14 W/m 13,8 C 14,4 C 0,0 km/h (0 Bft) 98 %
13.09.2014 08:00 14,4 C 14,4 C 14,4 C 96 % 1019,2 hPa 0,0 l/m 0,0 km/h (0 Bft) N 0 0 min 0,000 mm 18 W/m 13,8 C 14,4 C 0,0 km/h (0 Bft) 98 %
13.09.2014 08:10 14,5 C 14,4 C 14,5 C 96 % 1019,2 hPa 0,0 l/m 0,0 km/h (0 Bft) N 0 0 min 0,000 mm 18 W/m 13,9 C 14,5 C 0,0 km/h (0 Bft) 98 %
13.09.2014 08:20 14,6 C 14,5 C 14,6 C 96 % 1019,2 hPa 0,0 l/m 0,0 km/h (0 Bft) N 0 0 min 0,000 mm 23 W/m 14,0 C 14,6 C 0,0 km/h (0 Bft) 96 %
13.09.2014 08:30 14,6 C 14,6 C 14,6 C 96 % 1019,4 hPa 0,0 l/m 0,0 km/h (0 Bft) N 0 0 min 0,000 mm 35 W/m 14,0 C 14,6 C 0,0 km/h (0 Bft) 97 %
13.09.2014 08:40 14,6 C 14,6 C 14,6 C 96 % 1019,3 hPa 0,0 l/m 0,0 km/h (0 Bft) S-SW 202 0 min 0,000 mm 53 W/m 14,0 C 14,6 C 4,8 km/h (1 Bft) 98 %
13.09.2014 08:50 14,6 C 14,6 C 14,6 C 96 % 1019,2 hPa 0,0 l/m 0,0 km/h (0 Bft) S-SW 202 0 min 0,000 mm 56 W/m 14,0 C 14,6 C 3,2 km/h (1 Bft) 96 %
13.09.2014 09:00 14,6 C 14,6 C 14,6 C 96 % 1019,3 hPa 0,0 l/m 0,0 km/h (0 Bft) N 0 0 min 0,025 mm 69 W/m 14,0 C 14,6 C 0,0 km/h (0 Bft) 97 %
13.09.2014 09:10 14,8 C 14,6 C 14,8 C 96 % 1019,4 hPa 0,0 l/m 0,0 km/h (0 Bft) S-SW 202 10 min 0,000 mm 153 W/m 14,2 C 14,8 C 6,4 km/h (2 Bft) 96 %
13.09.2014 09:20 14,7 C 14,7 C 14,8 C 96 % 1019,5 hPa 0,0 l/m 0,0 km/h (0 Bft) S-SW 202 0 min 0,000 mm 74 W/m 14,1 C 14,7 C 1,6 km/h (1 Bft) 98 %
13.09.2014 09:30 14,5 C 14,5 C 14,7 C 96 % 1019,7 hPa 0,0 l/m 0,0 km/h (0 Bft) S 180 0 min 0,000 mm 60 W/m 13,9 C 14,5 C 6,4 km/h (2 Bft) 98 %
13.09.2014 09:40 14,4 C 14,4 C 14,5 C 96 % 1019,8 hPa 0,0 l/m 0,0 km/h (0 Bft) S 180 0 min 0,000 mm 84 W/m 13,8 C 14,4 C 1,6 km/h (1 Bft) 98 %
13.09.2014 09:50 14,4 C 14,4 C 14,4 C 96 % 1019,9 hPa 0,0 l/m 0,0 km/h (0 Bft) S 180 0 min 0,000 mm 74 W/m 13,8 C 14,4 C 1,6 km/h (1 Bft) 98 %
13.09.2014 10:00 14,3 C 14,3 C 14,3 C 96 % 1019,9 hPa 0,0 l/m 0,0 km/h (0 Bft) S-SO 157 0 min 0,025 mm 76 W/m 13,7 C 14,3 C 6,4 km/h (2 Bft) 97 %
13.09.2014 10:10 14,3 C 14,3 C 14,3 C 96 % 1019,9 hPa 0,0 l/m 0,0 km/h (0 Bft) S 180 0 min 0,000 mm 100 W/m 13,7 C 14,3 C 1,6 km/h (1 Bft) 98 %
13.09.2014 10:20 14,4 C 14,3 C 14,4 C 96 % 1020,1 hPa 0,0 l/m 0,0 km/h (0 Bft) S 180 0 min 0,000 mm 120 W/m 13,8 C 14,4 C 1,6 km/h (1 Bft) 98 %
13.09.2014 10:30 14,4 C 14,4 C 14,4 C 96 % 1020,1 hPa 0,0 l/m 0,0 km/h (0 Bft) S 180 0 min 0,000 mm 104 W/m 13,8 C 14,4 C 4,8 km/h (1 Bft) 97 %
13.09.2014 10:40 14,5 C 14,4 C 14,5 C 96 % 1020,2 hPa 0,0 l/m 0,0 km/h (0 Bft) S 180 10 min 0,000 mm 183 W/m 13,9 C 14,5 C 1,6 km/h (1 Bft) 98 %
13.09.2014 10:50 14,6 C 14,5 C 14,7 C 96 % 1020,4 hPa 0,0 l/m 0,0 km/h (0 Bft) S 180 10 min 0,000 mm 199 W/m 14,0 C 14,6 C 1,6 km/h (1 Bft) 97 %
13.09.2014 11:00 14,7 C 14,7 C 14,7 C 96 % 1020,1 hPa 0,0 l/m 0,0 km/h (0 Bft) S 180 10 min 0,051 mm 153 W/m 14,1 C 14,7 C 1,6 km/h (1 Bft) 98 %
13.09.2014 11:10 14,7 C 14,7 C 14,7 C 96 % 1020,3 hPa 0,0 l/m 0,0 km/h (0 Bft) S 180 0 min 0,000 mm 79 W/m 14,1 C 14,7 C 1,6 km/h (1 Bft) 98 %
13.09.2014 11:20 14,7 C 14,6 C 14,7 C 96 % 1020,2 hPa 0,0 l/m 0,0 km/h (0 Bft) S 180 0 min 0,000 mm 86 W/m 14,1 C 14,7 C 1,6 km/h (1 Bft) 98 %
13.09.2014 11:30 14,7 C 14,7 C 14,7 C 96 % 1020,3 hPa 0,0 l/m 0,0 km/h (0 Bft) S 180 0 min 0,000 mm 83 W/m 14,1 C 14,7 C 3,2 km/h (1 Bft) 98 %
13.09.2014 11:40 14,8 C 14,7 C 14,8 C 96 % 1020,0 hPa 0,0 l/m 0,0 km/h (0 Bft) S 180 10 min 0,000 mm 158 W/m 14,2 C 14,8 C 1,6 km/h (1 Bft) 97 %
13.09.2014 11:50 15,1 C 14,8 C 15,1 C 96 % 1020,1 hPa 0,0 l/m 0,0 km/h (0 Bft) S 180 10 min 0,000 mm 257 W/m 14,5 C 15,1 C 4,8 km/h (1 Bft) 97 %
13.09.2014 12:00 15,2 C 15,1 C 15,2 C 96 % 1020,2 hPa 0,0 l/m 0,0 km/h (0 Bft) S 180 0 min 0,051 mm 142 W/m 14,6 C 15,2 C 4,8 km/h (1 Bft) 98 %
13.09.2014 12:10 15,1 C 15,1 C 15,2 C 96 % 1020,1 hPa 0,0 l/m 0,0 km/h (0 Bft) S 180 0 min 0,000 mm 53 W/m 14,5 C 15,1 C 4,8 km/h (1 Bft) 98 %
13.09.2014 12:20 15,1 C 15,1 C 15,1 C 96 % 1020,1 hPa 0,0 l/m 0,0 km/h (0 Bft) S 180 0 min 0,000 mm 49 W/m 14,5 C 15,1 C 6,4 km/h (2 Bft) 98 %
13.09.2014 12:30 15,1 C 15,1 C 15,1 C 96 % 1020,1 hPa 0,0 l/m 0,0 km/h (0 Bft) SO 135 0 min 0,000 mm 54 W/m 14,5 C 15,1 C 1,6 km/h (1 Bft) 98 %
13.09.2014 12:40 15,1 C 15,1 C 15,1 C 96 % 1020,1 hPa 0,0 l/m 0,0 km/h (0 Bft) SO 135 0 min 0,000 mm 102 W/m 14,5 C 15,1 C 1,6 km/h (1 Bft) 97 %
13.09.2014 12:50 15,1 C 15,1 C 15,1 C 96 % 1020,1 hPa 0,0 l/m 0,0 km/h (0 Bft) SO 135 0 min 0,000 mm 91 W/m 14,5 C 15,1 C 1,6 km/h (1 Bft) 97 %
13.09.2014 13:00 15,1 C 15,1 C 15,1 C 96 % 1020,1 hPa 0,0 l/m 0,0 km/h (0 Bft) S-SO 157 0 min 0,025 mm 77 W/m 14,5 C 15,1 C 1,6 km/h (1 Bft) 97 %
13.09.2014 13:10 15,1 C 15,1 C 15,1 C 96 % 1020,1 hPa 0,0 l/m 0,0 km/h (0 Bft) S-SO 157 0 min 0,000 mm 77 W/m 14,5 C 15,1 C 3,2 km/h (1 Bft) 98 %
13.09.2014 13:20 15,1 C 15,1 C 15,1 C 96 % 1020,0 hPa 0,0 l/m 0,0 km/h (0 Bft) S-SO 157 0 min 0,000 mm 72 W/m 14,5 C 15,1 C 4,8 km/h (1 Bft) 98 %
13.09.2014 13:30 15,2 C 15,1 C 15,2 C 96 % 1020,1 hPa 0,0 l/m 0,0 km/h (0 Bft) N 0 0 min 0,000 mm 116 W/m 14,6 C 15,2 C 0,0 km/h (0 Bft) 97 %
13.09.2014 13:40 15,3 C 15,2 C 15,3 C 96 % 1020,0 hPa 0,0 l/m 0,0 km/h (0 Bft) N 0 10 min 0,000 mm 172 W/m 14,7 C 15,3 C 0,0 km/h (0 Bft) 98 %
13.09.2014 13:50 15,4 C 15,3 C 15,4 C 96 % 1020,1 hPa 0,0 l/m 0,0 km/h (0 Bft) S 180 0 min 0,000 mm 146 W/m 14,8 C 15,4 C 1,6 km/h (1 Bft) 97 %
13.09.2014 14:00 15,4 C 15,4 C 15,4 C 96 % 1020,0 hPa 0,0 l/m 0,0 km/h (0 Bft) S 180 0 min 0,051 mm 42 W/m 14,8 C 15,4 C 1,6 km/h (1 Bft) 97 %
13.09.2014 14:10 15,6 C 15,4 C 15,6 C 96 % 1020,1 hPa 0,0 l/m 0,0 km/h (0 Bft) S 180 0 min 0,000 mm 47 W/m 15,0 C 15,6 C 1,6 km/h (1 Bft) 98 %
13.09.2014 14:20 15,6 C 15,6 C 15,6 C 96 % 1020,0 hPa 0,0 l/m 0,0 km/h (0 Bft) S 180 0 min 0,000 mm 58 W/m 15,0 C 15,6 C 1,6 km/h (1 Bft) 98 %
13.09.2014 14:30 15,7 C 15,6 C 15,7 C 96 % 1020,0 hPa 0,0 l/m 0,0 km/h (0 Bft) N 0 0 min 0,000 mm 62 W/m 15,1 C 15,7 C 0,0 km/h (0 Bft) 97 %
13.09.2014 14:40 15,7 C 15,7 C 15,7 C 96 % 1020,0 hPa 0,0 l/m 0,0 km/h (0 Bft) N 0 0 min 0,000 mm 109 W/m 15,1 C 15,7 C 0,0 km/h (0 Bft) 96 %
13.09.2014 14:50 15,8 C 15,7 C 15,8 C 96 % 1019,9 hPa 0,0 l/m 0,0 km/h (0 Bft) S 180 0 min 0,000 mm 109 W/m 15,2 C 15,8 C 1,6 km/h (1 Bft) 97 %
13.09.2014 15:00 16,1 C 15,8 C 16,1 C 96 % 1019,8 hPa 0,0 l/m 0,0 km/h (0 Bft) S 180 0 min 0,051 mm 121 W/m 15,5 C 16,1 C 1,6 km/h (1 Bft) 98 %
13.09.2014 15:10 16,2 C 16,1 C 16,2 C 96 % 1019,9 hPa 0,0 l/m 0,0 km/h (0 Bft) S 180 10 min 0,000 mm 183 W/m 15,6 C 16,2 C 3,2 km/h (1 Bft) 97 %
13.09.2014 15:20 16,4 C 16,2 C 16,4 C 96 % 1019,9 hPa 0,0 l/m 0,0 km/h (0 Bft) S 180 10 min 0,000 mm 297 W/m 15,8 C 16,4 C 1,6 km/h (1 Bft) 98 %
13.09.2014 15:30 16,7 C 16,4 C 16,7 C 96 % 1019,8 hPa 0,0 l/m 0,0 km/h (0 Bft) S 180 10 min 0,000 mm 202 W/m 16,1 C 16,7 C 3,2 km/h (1 Bft) 97 %
13.09.2014 15:40 16,8 C 16,7 C 16,8 C 96 % 1019,8 hPa 0,0 l/m 0,0 km/h (0 Bft) S-SW 202 10 min 0,000 mm 167 W/m 16,2 C 16,8 C 1,6 km/h (1 Bft) 98 %
13.09.2014 15:50 16,9 C 16,8 C 16,9 C 96 % 1019,7 hPa 0,0 l/m 0,0 km/h (0 Bft) W-NW 292 10 min 0,000 mm 211 W/m 16,3 C 16,9 C 4,8 km/h (1 Bft) 98 %
13.09.2014 16:00 17,1 C 16,9 C 17,1 C 96 % 1019,7 hPa 0,0 l/m 0,0 km/h (0 Bft) W-NW 292 10 min 0,102 mm 206 W/m 16,5 C 17,1 C 1,6 km/h (1 Bft) 98 %
13.09.2014 16:10 17,3 C 17,1 C 17,3 C 96 % 1019,7 hPa 0,0 l/m 0,0 km/h (0 Bft) N-NW 337 10 min 0,000 mm 195 W/m 16,7 C 17,3 C 6,4 km/h (2 Bft) 97 %
13.09.2014 16:20 17,4 C 17,3 C 17,4 C 96 % 1019,8 hPa 0,0 l/m 0,0 km/h (0 Bft) N-NW 337 0 min 0,000 mm 139 W/m 16,8 C 17,4 C 4,8 km/h (1 Bft) 97 %
13.09.2014 16:30 17,4 C 17,4 C 17,4 C 96 % 1019,9 hPa 0,0 l/m 0,0 km/h (0 Bft) N-NW 337 0 min 0,000 mm 116 W/m 16,8 C 17,4 C 1,6 km/h (1 Bft) 97 %
13.09.2014 16:40 17,3 C 17,3 C 17,4 C 96 % 1019,9 hPa 0,0 l/m 0,0 km/h (0 Bft) N 0 0 min 0,000 mm 63 W/m 16,7 C 17,3 C 0,0 km/h (0 Bft) 96 %
13.09.2014 16:50 17,3 C 17,3 C 17,3 C 96 % 1019,8 hPa 0,0 l/m 0,0 km/h (0 Bft) N 0 0 min 0,000 mm 148 W/m 16,7 C 17,3 C 0,0 km/h (0 Bft) 97 %
13.09.2014 17:00 17,3 C 17,3 C 17,4 C 96 % 1019,7 hPa 0,0 l/m 0,0 km/h (0 Bft) N-NW 337 10 min 0,051 mm 153 W/m 16,7 C 17,3 C 3,2 km/h (1 Bft) 97 %
13.09.2014 17:10 17,6 C 17,4 C 17,6 C 96 % 1019,7 hPa 0,0 l/m 0,0 km/h (0 Bft) N-NW 337 0 min 0,000 mm 135 W/m 17,0 C 17,6 C 3,2 km/h (1 Bft) 96 %
13.09.2014 17:20 17,6 C 17,5 C 17,6 C 96 % 1019,7 hPa 0,0 l/m 0,0 km/h (0 Bft) N-NW 337 0 min 0,000 mm 128 W/m 17,0 C 17,6 C 3,2 km/h (1 Bft) 88 %
13.09.2014 17:30 17,7 C 17,6 C 17,7 C 96 % 1019,7 hPa 0,0 l/m 0,0 km/h (0 Bft) N-NW 337 0 min 0,000 mm 142 W/m 17,1 C 17,7 C 6,4 km/h (2 Bft) 98 %
13.09.2014 17:40 17,7 C 17,7 C 17,7 C 96 % 1019,6 hPa 0,0 l/m 0,0 km/h (0 Bft) N-NW 337 10 min 0,000 mm 167 W/m 17,1 C 17,7 C 4,8 km/h (1 Bft) 100 %
13.09.2014 17:50 17,8 C 17,7 C 17,8 C 95 % 1019,7 hPa 0,0 l/m 1,6 km/h (1 Bft) N-NW 337 0 min 0,000 mm 121 W/m 17,0 C 17,8 C 6,4 km/h (2 Bft) 100 %
13.09.2014 18:00 17,7 C 17,7 C 17,8 C 95 % 1019,7 hPa 0,0 l/m 0,0 km/h (0 Bft) N-NW 337 0 min 0,051 mm 67 W/m 16,9 C 17,7 C 4,8 km/h (1 Bft) 100 %
13.09.2014 18:10 17,7 C 17,7 C 17,7 C 96 % 1019,6 hPa 0,0 l/m 0,0 km/h (0 Bft) NW 315 0 min 0,000 mm 63 W/m 17,1 C 17,7 C 6,4 km/h (2 Bft) 100 %
13.09.2014 18:20 17,5 C 17,5 C 17,7 C 95 % 1019,6 hPa 0,0 l/m 0,0 km/h (0 Bft) N-NW 337 0 min 0,000 mm 84 W/m 16,7 C 17,5 C 6,4 km/h (2 Bft) 99 %
13.09.2014 18:30 17,4 C 17,4 C 17,7 C 96 % 1019,8 hPa 0,0 l/m 0,0 km/h (0 Bft) N-NW 336 0 min 0,000 mm 39 W/m 16,8 C 17,4 C 0,0 km/h (0 Bft) 97 %
13.09.2014 18:40 17,3 C 17,3 C 17,4 C 96 % 1019,6 hPa 0,0 l/m 0,4 km/h (0 Bft) N-NW 331 0 min 0,000 mm 35 W/m 16,7 C 17,3 C 4,8 km/h (1 Bft) 97 %
13.09.2014 18:50 17,2 C 17,2 C 17,3 C 96 % 1019,7 hPa 0,0 l/m 1,5 km/h (1 Bft) N-NW 331 0 min 0,000 mm 14 W/m 16,6 C 17,2 C 9,7 km/h (2 Bft) 97 %
13.09.2014 19:00 17,1 C 17,1 C 17,2 C 96 % 1019,8 hPa 0,0 l/m 2,1 km/h (1 Bft) N 350 0 min 0,025 mm 11 W/m 16,5 C 17,1 C 9,7 km/h (2 Bft) 97 %
13.09.2014 19:10 16,9 C 16,9 C 17,1 C 96 % 1019,9 hPa 0,0 l/m 1,0 km/h (0 Bft) N-NW 332 0 min 0,000 mm 9 W/m 16,3 C 16,9 C 14,5 km/h (3 Bft) 97 %
13.09.2014 19:20 16,8 C 16,8 C 16,9 C 96 % 1019,8 hPa 0,0 l/m 0,7 km/h (0 Bft) N-NW 334 0 min 0,000 mm 7 W/m 16,2 C 16,8 C 9,7 km/h (2 Bft) 97 %
13.09.2014 19:30 16,7 C 16,7 C 16,8 C 95 % 1020,0 hPa 0,0 l/m 0,3 km/h (0 Bft) NW 325 0 min 0,000 mm 5 W/m 15,9 C 16,7 C 4,8 km/h (1 Bft) 96 %
13.09.2014 19:40 16,6 C 16,6 C 16,7 C 95 % 1020,0 hPa 0,0 l/m 0,4 km/h (0 Bft) NW 323 0 min 0,000 mm 0 W/m 15,8 C 16,6 C 9,7 km/h (2 Bft) 97 %
13.09.2014 19:50 16,4 C 16,4 C 16,6 C 95 % 1020,0 hPa 0,0 l/m 0,2 km/h (0 Bft) NW 312 0 min 0,000 mm 0 W/m 15,6 C 16,4 C 6,4 km/h (2 Bft) 98 %
13.09.2014 20:00 16,3 C 16,3 C 16,4 C 95 % 1019,9 hPa 0,0 l/m 0,7 km/h (0 Bft) N 355 0 min 0,000 mm 0 W/m 15,5 C 16,3 C 8,0 km/h (2 Bft) 97 %
13.09.2014 20:10 16,2 C 16,2 C 16,3 C 95 % 1020,1 hPa 0,0 l/m 0,5 km/h (0 Bft) N-NW 341 0 min 0,000 mm 0 W/m 15,4 C 16,2 C 8,0 km/h (2 Bft) 98 %
13.09.2014 20:20 16,1 C 16,1 C 16,2 C 95 % 1020,2 hPa 0,0 l/m 0,5 km/h (0 Bft) N-NW 329 0 min 0,000 mm 0 W/m 15,3 C 16,1 C 8,0 km/h (2 Bft) 97 %
13.09.2014 20:30 16,0 C 16,0 C 16,1 C 95 % 1020,3 hPa 0,0 l/m 0,9 km/h (0 Bft) N-NW 340 0 min 0,000 mm 0 W/m 15,2 C 16,0 C 6,4 km/h (2 Bft) 97 %
13.09.2014 20:40 15,9 C 15,9 C 16,0 C 95 % 1020,2 hPa 0,0 l/m 3,5 km/h (1 Bft) N-NW 335 0 min 0,000 mm 0 W/m 15,1 C 15,9 C 11,3 km/h (2 Bft) 98 %
13.09.2014 20:50 15,8 C 15,8 C 15,9 C 95 % 1020,2 hPa 0,0 l/m 4,2 km/h (1 Bft) N-NW 331 0 min 0,000 mm 0 W/m 15,0 C 15,8 C 14,5 km/h (3 Bft) 97 %
13.09.2014 21:00 15,8 C 15,8 C 15,8 C 95 % 1020,1 hPa 0,0 l/m 1,6 km/h (1 Bft) NW 320 0 min 0,000 mm 0 W/m 15,0 C 15,8 C 9,7 km/h (2 Bft) 98 %
13.09.2014 21:10 15,7 C 15,7 C 15,8 C 95 % 1020,2 hPa 0,0 l/m 1,6 km/h (1 Bft) N-NW 337 0 min 0,000 mm 0 W/m 14,9 C 15,7 C 11,3 km/h (2 Bft) 100 %
13.09.2014 21:20 15,7 C 15,6 C 15,7 C 95 % 1020,1 hPa 0,0 l/m 0,0 km/h (0 Bft) N-NW 337 0 min 0,000 mm 0 W/m 14,9 C 15,7 C 6,4 km/h (2 Bft) 100 %
13.09.2014 21:30 15,6 C 15,6 C 15,7 C 95 % 1020,2 hPa 0,0 l/m 0,0 km/h (0 Bft) N-NW 337 0 min 0,000 mm 0 W/m 14,8 C 15,6 C 4,8 km/h (1 Bft) 100 %
13.09.2014 21:40 15,5 C 15,5 C 15,6 C 95 % 1020,1 hPa 0,0 l/m 1,6 km/h (1 Bft) N-NW 337 0 min 0,000 mm 0 W/m 14,7 C 15,5 C 6,4 km/h (2 Bft) 100 %
13.09.2014 21:50 15,4 C 15,4 C 15,5 C 95 % 1020,3 hPa 0,0 l/m 0,0 km/h (0 Bft) N-NW 337 0 min 0,000 mm 0 W/m 14,6 C 15,4 C 6,4 km/h (2 Bft) 100 %
13.09.2014 22:00 15,1 C 15,1 C 15,4 C 95 % 1020,3 hPa 0,0 l/m 0,0 km/h (0 Bft) N-NO 22 0 min 0,000 mm 0 W/m 14,3 C 15,1 C 4,8 km/h (1 Bft) 99 %
13.09.2014 22:10 15,0 C 15,0 C 15,1 C 95 % 1020,3 hPa 0,0 l/m 0,0 km/h (0 Bft) N 0 0 min 0,000 mm 0 W/m 14,2 C 15,0 C 0,0 km/h (0 Bft) 100 %
13.09.2014 22:20 14,7 C 14,7 C 15,1 C 95 % 1020,3 hPa 0,0 l/m 0,0 km/h (0 Bft) N-NO 16 0 min 0,000 mm 0 W/m 13,9 C 14,7 C 0,0 km/h (0 Bft) 97 %
13.09.2014 22:30 14,4 C 14,4 C 14,7 C 95 % 1020,4 hPa 0,0 l/m 0,0 km/h (0 Bft) N-NO 16 0 min 0,000 mm 0 W/m 13,6 C 14,4 C 0,0 km/h (0 Bft) 98 %
13.09.2014 22:40 14,3 C 14,3 C 14,4 C 95 % 1020,3 hPa 0,0 l/m 0,0 km/h (0 Bft) N 0 0 min 0,000 mm 0 W/m 13,5 C 14,3 C 0,0 km/h (0 Bft) 100 %
13.09.2014 22:50 14,1 C 14,1 C 14,3 C 95 % 1020,1 hPa 0,0 l/m 0,0 km/h (0 Bft) N 0 0 min 0,000 mm 0 W/m 13,3 C 14,1 C 0,0 km/h (0 Bft) 100 %
13.09.2014 23:00 13,9 C 13,9 C 14,1 C 95 % 1020,1 hPa 0,0 l/m 0,0 km/h (0 Bft) N-NO 22 0 min 0,000 mm 0 W/m 13,1 C 13,9 C 1,6 km/h (1 Bft) 100 %
13.09.2014 23:10 13,8 C 13,8 C 13,9 C 95 % 1020,1 hPa 0,0 l/m 0,0 km/h (0 Bft) N-NO 22 0 min 0,000 mm 0 W/m 13,0 C 13,8 C 1,6 km/h (1 Bft) 100 %
13.09.2014 23:20 13,7 C 13,7 C 13,8 C 95 % 1020,3 hPa 0,0 l/m 0,0 km/h (0 Bft) N 0 0 min 0,000 mm 0 W/m 12,9 C 13,7 C 0,0 km/h (0 Bft) 100 %
13.09.2014 23:30 13,6 C 13,6 C 13,7 C 95 % 1020,3 hPa 0,0 l/m 0,0 km/h (0 Bft) N 0 0 min 0,000 mm 0 W/m 12,8 C 13,6 C 0,0 km/h (0 Bft) 87 %
13.09.2014 23:40 13,6 C 13,5 C 13,6 C 95 % 1020,3 hPa 0,0 l/m 0,0 km/h (0 Bft) N-NO 22 0 min 0,000 mm 0 W/m 12,8 C 13,6 C 1,6 km/h (1 Bft) 100 %
13.09.2014 23:50 13,6 C 13,5 C 13,6 C 95 % 1020,3 hPa 0,0 l/m 0,0 km/h (0 Bft) N 0 0 min 0,000 mm 0 W/m 12,8 C 13,6 C 0,0 km/h (0 Bft) 100 %
_ Min-Zeit 23:40 23:40 23:40 17:50 00:00 - 00:10 - - - - - 23:30 23:30 01:50 00:10
Minimum _ 13,5 C 13,5 C 13,6 C 95 % 1016,8 hPa - 0,0 km/h (0 Bft) - - - - - 12,8 C 13,6 C 0,0 km/h (0 Bft) 76 %
_ Max-Zeit 17:50 17:40 17:50 00:00 10:50 00:00 20:50 - - 09:10 16:00 15:20 17:30 17:50 19:10 21:20
Maximum _ 17,8 C 17,7 C 17,8 C 96 % 1020,4 hPa 0,0 l/m 4,2 km/h
N-NW (1 Bft)
- - 10 min 0,102 mm 297 W/m 17,1 C 17,8 C 14,5 km/h
N-NW (3 Bft)
100 %
Durchschnitt _ 15,2 C 15,2 C 15,2 C 96 % 1019,3 hPa #0,0 l/m 0,2 km/h (0 Bft) N-NW - #2:40 h #0,508 mm 98 W/m 14,5 C 15,2 C 2,9 km/h (1 Bft) 97 %
PRIVATE WETTERSTATION BILLIGHEIM-ALLFELD - www.neckar-odenwald-wetter.de - Holger Sonntag